TimeMDT,TemperatureF,Dew PointF,Humidity,Sea Level PressureIn,VisibilityMPH,Wind Direction,Wind SpeedMPH,Gust SpeedMPH,PrecipitationIn,Events,Conditions,WindDirDegrees,DateUTC
12:53 AM,57.0,30.9,37,29.99,10.0,NE,4.6,-,N/A,,Clear,50,2013-07-27 06:53:00
1:53 AM,53.1,33.1,47,29.98,10.0,ENE,3.5,-,N/A,,Clear,70,2013-07-27 07:53:00
2:53 AM,46.9,32.0,56,29.98,10.0,Calm,Calm,-,N/A,,Clear,0,2013-07-27 08:53:00
3:53 AM,48.0,32.0,54,29.98,10.0,NNW,8.1,-,N/A,,Clear,330,2013-07-27 09:53:00
4:53 AM,50.0,32.0,50,29.98,10.0,North,6.9,-,N/A,,Clear,350,2013-07-27 10:53:00
5:53 AM,48.0,33.1,56,29.99,10.0,NE,11.5,-,N/A,,Clear,40,2013-07-27 11:53:00
6:53 AM,50.0,33.1,52,29.98,10.0,Calm,Calm,-,N/A,,Clear,0,2013-07-27 12:53:00
7:53 AM,57.9,37.0,46,29.95,10.0,West,3.5,-,N/A,,Clear,260,2013-07-27 13:53:00
8:53 AM,73.9,37.0,26,29.93,10.0,North,8.1,-,N/A,,Clear,350,2013-07-27 14:53:00
9:53 AM,72.0,41.0,33,29.94,10.0,Calm,Calm,-,N/A,,Clear,0,2013-07-27 15:53:00
10:53 AM,75.0,36.0,24,29.92,10.0,South,8.1,-,N/A,,Partly Cloudy,190,2013-07-27 16:53:00
11:53 AM,73.9,37.9,27,29.94,10.0,WSW,8.1,-,N/A,,Overcast,240,2013-07-27 17:53:00
12:53 PM,72.0,37.9,29,29.96,10.0,WNW,4.6,-,0.00,,Overcast,300,2013-07-27 18:53:00
1:53 PM,72.0,36.0,27,29.96,10.0,North,6.9,-,N/A,,Overcast,10,2013-07-27 19:53:00
2:53 PM,66.9,46.0,47,30.01,10.0,SSW,16.1,26.5,N/A,,Overcast,210,2013-07-27 20:53:00
3:53 PM,62.1,51.1,67,30.02,10.0,NNW,13.8,-,0.00,Rain,Light Rain,340,2013-07-27 21:53:00
4:53 PM,69.1,43.0,39,29.95,10.0,Variable,3.5,-,0.00,,Mostly Cloudy,0,2013-07-27 22:53:00
5:53 PM,68.0,45.0,43,29.95,10.0,WSW,5.8,-,N/A,,Mostly Cloudy,240,2013-07-27 23:53:00
6:53 PM,68.0,43.0,40,29.93,10.0,NW,4.6,-,N/A,,Overcast,320,2013-07-28 00:53:00
7:53 PM,64.9,48.0,54,29.89,10.0,West,3.5,-,N/A,,Scattered Clouds,280,2013-07-28 01:53:00
8:53 PM,61.0,48.0,62,29.85,10.0,SSW,4.6,-,N/A,,Clear,200,2013-07-28 02:53:00
9:53 PM,59.0,48.9,69,29.87,10.0,South,5.8,-,N/A,,Scattered Clouds,190,2013-07-28 03:53:00
10:53 PM,54.0,48.0,80,29.87,10.0,SSW,4.6,-,N/A,,Clear,210,2013-07-28 04:53:00
11:53 PM,51.1,46.0,83,29.88,10.0,ENE,5.8,-,N/A,,Clear,70,2013-07-28 05:53:00